"datetime","# probes","# resolvers","can_ipv6","can_ipv6_prbs","can_tcp","can_tcp_prbs","can_tcp6","can_tcp6_prbs","does_ecs","does_ecs_prbs","does_flagday","does_flagday_prbs","does_rov4","does_rov4_prbs","does_rov6","does_rov6_prbs","does_qnamemin","doesnt_qnamemin","does_qnamemin_prbs","doesnt_qnamemin_prbs","does_nxdomain","doesnt_nxdomain","does_nxdomain_prbs","doesnt_nxdomain_prbs","has_ta_19036","hasnt_ta_19036","has_ta_19036_prbs","hasnt_ta_19036_prbs","has_ta_20326","hasnt_ta_20326","has_ta_20326_prbs","hasnt_ta_20326_prbs","can_rsamd5","cannot_rsamd5","broken_rsamd5","can_rsamd5_prbs","cannot_rsamd5_prbs","broken_rsamd5_prbs","can_dsa","cannot_dsa","broken_dsa","can_dsa_prbs","cannot_dsa_prbs","broken_dsa_prbs","can_rsasha1","cannot_rsasha1","broken_rsasha1","can_rsasha1_prbs","cannot_rsasha1_prbs","broken_rsasha1_prbs","can_dsansec3","cannot_dsansec3","broken_dsansec3","can_dsansec3_prbs","cannot_dsansec3_prbs","broken_dsansec3_prbs","can_rsansec3","cannot_rsansec3","broken_rsansec3","can_rsansec3_prbs","cannot_rsansec3_prbs","broken_rsansec3_prbs","can_rsasha256","cannot_rsasha256","broken_rsasha256","can_rsasha256_prbs","cannot_rsasha256_prbs","broken_rsasha256_prbs","can_rsasha512","cannot_rsasha512","broken_rsasha512","can_rsasha512_prbs","cannot_rsasha512_prbs","broken_rsasha512_prbs","can_eccgost","cannot_eccgost","broken_eccgost","can_eccgost_prbs","cannot_eccgost_prbs","broken_eccgost_prbs","can_ecdsa256","cannot_ecdsa256","broken_ecdsa256","can_ecdsa256_prbs","cannot_ecdsa256_prbs","broken_ecdsa256_prbs","can_ecdsa384","cannot_ecdsa384","broken_ecdsa384","can_ecdsa384_prbs","cannot_ecdsa384_prbs","broken_ecdsa384_prbs","can_ed25519","cannot_ed25519","broken_ed25519","can_ed25519_prbs","cannot_ed25519_prbs","broken_ed25519_prbs","can_ed448","cannot_ed448","broken_ed448","can_ed448_prbs","cannot_ed448_prbs","broken_ed448_prbs","can_gost","cannot_gost","broken_gost","can_gost_prbs","cannot_gost_prbs","broken_gost_prbs","can_sha384","cannot_sha384","broken_sha384","can_sha384_prbs","cannot_sha384_prbs","broken_sha384_prbs","is_internal","is_forwarding","is_external","is_internal_prbs","is_forwarding_prbs","is_external_prbs"
2019-01-28T23:59:52Z,109,174,10,14,174,109,3,8,0,4,174,109,0,0,0,0,9,165,6,104,0,174,0,109,0,8,0,4,8,0,4,0,2,172,0,2,107,5,3,171,0,3,108,1,12,162,0,12,102,1,2,171,1,2,108,2,12,162,0,12,102,1,12,162,0,12,102,1,12,162,0,12,102,1,2,172,0,2,109,1,12,162,0,12,102,1,14,160,0,13,101,1,2,171,1,6,107,2,0,172,2,0,108,2,2,172,0,5,108,2,12,162,0,12,102,1,143,14,17,97,24,19
2019-01-29T23:59:56Z,119,191,14,19,191,119,4,11,0,6,191,119,0,0,0,0,9,182,6,114,0,191,0,119,0,8,0,4,8,0,4,0,2,188,1,2,117,7,3,188,0,3,118,1,13,178,0,14,112,1,3,188,0,3,118,1,13,178,0,14,112,1,13,178,0,14,112,1,13,178,0,14,112,1,3,188,0,3,119,1,12,178,1,14,112,2,13,178,0,14,112,1,1,190,0,7,118,1,0,191,0,0,119,1,3,187,1,8,118,2,13,178,0,14,112,1,157,17,17,105,28,21
2019-01-30T23:59:57Z,125,198,20,25,198,125,10,17,3,12,198,125,0,0,0,0,9,189,5,120,0,198,0,125,0,10,0,6,11,0,7,0,6,191,1,6,119,10,7,191,0,7,120,1,18,180,0,20,113,1,7,191,0,7,120,1,17,180,1,20,113,2,17,180,1,20,113,2,18,180,0,20,113,1,3,195,0,3,125,1,17,181,0,19,114,2,17,181,0,19,114,1,3,195,0,11,122,1,0,198,0,0,125,1,4,192,2,11,121,4,17,181,0,19,114,1,164,17,17,111,31,21
2019-01-31T23:59:57Z,126,198,22,27,196,125,14,21,3,12,198,126,0,0,0,0,10,188,7,120,0,198,0,126,0,12,0,8,13,0,9,0,9,186,3,8,117,11,10,188,0,10,119,1,23,175,0,24,110,1,10,188,0,10,119,1,23,175,0,24,110,1,23,175,0,24,110,1,23,175,0,24,110,1,6,192,0,6,125,1,22,176,0,23,111,1,22,176,0,23,111,1,2,196,0,11,124,1,0,198,0,0,126,1,9,187,2,15,119,4,22,176,0,23,111,1,167,14,17,113,29,21
2019-02-01T23:59:57Z,112,184,14,17,183,112,4,9,0,7,184,112,0,0,0,0,9,175,5,107,0,184,0,112,0,9,0,5,9,0,5,0,3,180,1,3,109,8,4,180,0,4,110,1,14,170,0,14,103,1,4,180,0,4,110,1,14,170,0,14,103,1,14,170,0,14,103,1,14,170,0,14,103,1,2,182,0,2,112,1,14,170,0,14,103,1,14,170,0,14,103,1,2,182,0,8,110,1,0,184,0,0,112,1,2,180,2,7,109,3,14,170,0,14,103,1,154,13,17,100,26,20
2019-02-02T23:59:57Z,116,187,14,19,187,116,6,13,1,7,187,116,0,0,0,0,7,180,5,112,0,187,0,116,0,7,0,4,7,0,4,0,3,183,1,3,113,7,3,183,1,3,113,2,11,176,0,13,109,1,2,185,0,2,115,1,11,176,0,13,109,1,11,176,0,13,109,1,11,176,0,13,109,1,2,185,0,2,116,1,11,176,0,13,109,1,11,176,0,13,109,1,1,186,0,7,115,1,0,187,0,0,116,1,3,183,1,8,114,2,11,176,0,13,109,1,157,13,17,104,25,21
2019-02-03T23:59:59Z,115,188,13,17,188,115,3,10,0,6,188,115,0,0,0,0,7,181,5,111,0,188,0,115,0,6,0,3,6,0,3,0,4,183,1,3,112,7,2,184,2,2,113,2,10,178,0,12,109,1,2,184,2,2,113,2,10,178,0,12,109,1,10,178,0,12,109,1,10,178,0,12,109,1,1,187,0,1,115,1,10,178,0,12,109,1,10,178,0,12,109,1,1,187,0,7,114,1,0,188,0,0,115,1,1,186,1,6,114,2,10,178,0,12,109,1,159,12,17,104,24,21
2019-02-04T23:59:59Z,115,189,12,17,189,115,4,11,0,6,189,115,0,0,0,0,9,180,6,110,0,189,0,115,0,8,0,4,8,0,4,0,2,184,3,2,112,8,2,185,2,2,113,2,12,175,2,13,107,2,2,187,0,2,114,1,12,177,0,13,108,1,12,177,0,13,108,1,12,177,0,13,108,1,2,187,0,2,115,1,12,177,0,13,108,1,12,177,0,13,108,1,1,188,0,7,114,1,0,189,0,0,115,1,2,186,1,7,114,2,12,177,0,13,108,1,159,13,17,103,25,21
2019-02-05T23:59:58Z,116,190,14,19,190,116,5,12,1,7,190,116,0,0,0,0,9,181,6,111,0,190,0,116,0,8,0,4,8,0,4,0,2,187,1,2,114,7,3,187,0,3,115,1,13,177,0,14,109,1,3,187,0,3,115,1,14,176,0,15,108,1,14,176,0,15,108,1,14,176,0,15,108,1,3,187,0,3,116,1,13,177,0,14,109,1,13,177,0,14,109,1,1,189,0,7,115,1,0,190,0,0,116,1,3,186,1,8,115,2,14,176,0,15,108,1,158,15,17,103,26,21
2019-02-06T23:59:58Z,118,192,14,19,192,118,4,11,0,6,192,118,0,0,0,0,9,183,5,113,0,192,0,118,0,8,0,4,8,0,4,0,2,190,0,2,116,7,3,188,1,3,116,2,13,179,0,14,110,1,3,188,1,3,116,2,13,179,0,14,110,1,13,179,0,14,110,1,13,179,0,14,110,1,3,189,0,3,118,1,14,178,0,15,109,1,14,178,0,15,109,1,2,190,0,7,116,1,0,192,0,0,118,1,3,188,1,8,116,3,13,179,0,14,110,1,162,13,17,106,25,20
2019-02-07T23:59:59Z,116,185,13,18,185,116,4,11,1,7,185,116,0,0,0,0,9,176,5,111,0,185,0,116,0,8,0,4,8,0,4,0,3,182,0,3,113,7,4,181,0,4,114,1,13,172,0,14,108,1,4,181,0,4,114,1,13,172,0,14,108,1,13,172,0,14,108,1,12,172,1,14,108,2,3,182,0,3,116,1,13,172,0,14,108,1,13,172,0,14,108,1,1,184,0,6,115,1,0,185,0,0,116,1,4,181,0,9,114,2,14,171,0,15,107,1,156,12,17,105,25,20
2019-02-08T23:59:56Z,115,187,13,18,187,115,3,10,1,7,187,115,0,0,0,0,9,178,5,110,0,187,0,115,0,8,0,4,8,0,4,0,2,185,0,2,113,7,2,185,0,2,114,1,11,176,0,11,108,2,2,185,0,2,114,1,11,176,0,12,108,1,11,176,0,12,108,1,11,176,0,12,108,1,2,185,0,2,115,1,11,176,0,12,108,1,10,176,1,12,108,2,1,186,0,6,114,1,0,187,0,0,115,1,3,182,2,8,112,3,12,175,0,13,107,1,156,14,17,102,27,20
2019-02-09T23:59:59Z,116,185,13,18,185,116,5,12,2,8,185,116,0,0,0,0,9,176,5,111,0,185,0,116,0,8,0,4,8,0,4,0,2,182,1,2,114,8,3,181,1,3,114,2,13,172,0,14,108,1,3,181,1,3,114,2,13,172,0,14,108,1,13,172,0,14,108,1,13,172,0,14,108,1,3,182,0,3,116,1,13,172,0,14,108,1,13,172,0,14,108,1,2,183,0,7,114,1,0,185,0,0,116,1,4,180,1,9,113,3,13,172,0,14,108,1,155,14,16,103,26,19
2019-02-10T23:59:58Z,115,187,11,16,186,115,4,11,1,7,187,115,0,0,0,0,10,177,5,110,0,187,0,115,0,9,0,4,9,0,4,0,2,185,0,2,113,7,4,183,0,4,113,1,14,173,0,14,107,1,4,183,0,4,113,1,14,173,0,14,107,1,14,173,0,14,107,1,14,173,0,14,107,1,3,184,0,3,115,1,14,173,0,14,107,1,14,173,0,14,107,1,2,185,0,7,113,1,0,187,0,0,115,1,3,183,1,8,113,3,14,173,0,14,107,1,155,15,17,103,25,20
2019-02-11T23:59:56Z,117,190,14,19,190,117,5,12,1,8,190,117,0,0,0,0,9,181,5,112,0,190,1,117,0,8,0,4,8,0,4,0,1,189,0,1,116,8,2,188,0,2,116,1,12,178,0,14,110,2,2,187,1,2,116,3,11,179,0,13,110,1,11,179,0,13,110,1,11,179,0,13,110,2,1,189,0,1,117,2,11,179,0,13,110,1,11,179,0,13,110,2,2,188,0,8,115,1,0,190,0,0,117,2,1,188,1,7,115,3,14,176,0,15,108,1,161,13,16,106,26,19
2019-02-12T23:59:56Z,113,187,12,17,187,113,4,10,1,7,187,113,0,0,0,0,7,180,5,110,0,187,1,113,0,8,0,4,8,0,4,0,1,186,0,1,112,8,2,185,0,2,112,2,11,176,0,12,106,2,2,185,0,2,112,2,12,175,0,13,105,2,12,175,0,13,105,2,12,175,0,13,105,2,1,186,0,1,113,2,11,176,0,12,106,2,11,176,0,12,106,2,2,185,0,7,111,2,0,187,0,0,113,2,1,185,1,6,111,4,11,176,0,12,106,2,159,12,16,103,25,19
2019-02-13T23:59:56Z,113,183,11,16,183,113,3,10,0,6,183,113,0,0,0,0,9,174,5,108,0,183,1,113,0,8,0,4,8,0,4,0,2,181,0,2,111,7,2,180,1,2,112,2,12,171,0,13,106,2,2,180,1,2,112,2,12,171,0,13,106,2,12,171,0,13,106,1,12,171,0,13,106,2,3,180,0,3,113,2,12,171,0,13,106,1,12,171,0,13,106,2,1,182,0,6,112,1,0,183,0,0,113,2,3,180,0,8,112,2,12,171,0,13,106,1,155,12,16,103,22,19
2019-02-14T23:59:57Z,112,183,11,16,183,112,3,10,0,6,183,112,0,0,0,0,9,174,5,107,0,183,1,112,0,8,0,4,8,0,4,0,2,181,0,2,110,7,3,180,0,3,111,1,12,171,0,13,105,2,3,180,0,3,111,2,12,171,0,13,105,2,12,171,0,13,105,1,12,171,0,13,105,2,3,180,0,3,112,2,12,171,0,13,105,1,12,171,0,13,105,1,1,182,0,6,111,1,0,183,0,0,112,2,3,180,0,8,111,2,12,171,0,13,105,2,155,12,16,102,22,19
2019-02-15T23:59:55Z,115,190,11,18,190,115,4,13,0,6,190,115,0,0,0,0,9,181,7,110,0,190,0,115,0,8,0,4,8,0,4,0,2,188,0,2,113,7,2,186,2,2,113,2,11,179,0,13,108,1,2,188,0,2,114,1,11,179,0,13,108,1,11,179,0,13,108,1,11,179,0,13,108,1,2,188,0,2,115,1,11,179,0,13,108,1,11,179,0,13,108,1,1,189,0,7,114,1,0,190,0,0,115,1,2,188,0,7,114,2,12,178,0,14,107,1,156,18,16,105,24,19
2019-02-16T23:59:58Z,116,188,13,19,188,116,4,12,0,6,188,116,0,0,0,0,9,179,6,111,0,188,0,116,0,9,0,6,8,0,4,0,2,185,1,2,113,8,2,186,0,2,115,1,12,176,0,14,108,2,2,186,0,2,115,1,12,176,0,14,108,1,12,176,0,14,108,1,12,176,0,14,108,1,2,186,0,2,116,1,12,176,0,14,108,1,12,176,0,14,108,1,1,187,0,7,115,1,0,188,0,0,116,1,3,185,0,8,114,2,12,176,0,14,108,1,158,14,16,106,22,20
2019-02-17T23:59:57Z,116,187,11,17,187,116,3,11,0,6,187,116,0,0,0,0,9,178,6,111,0,187,1,116,0,8,0,4,8,0,4,0,3,183,1,3,112,8,4,183,0,4,114,1,14,173,0,16,107,1,4,183,0,4,114,1,13,174,0,15,108,1,14,173,0,16,107,1,14,173,0,16,107,1,3,184,0,3,116,1,14,173,0,16,107,1,14,173,0,16,107,1,2,185,0,8,114,1,0,187,0,0,116,1,4,183,0,8,114,3,14,173,0,16,107,1,158,13,16,107,23,20
2019-02-18T23:59:58Z,114,183,11,16,183,114,3,10,0,6,183,114,0,0,0,0,10,173,6,108,0,183,1,114,0,8,0,4,8,0,4,0,2,181,0,2,112,8,3,180,0,3,113,2,12,171,0,13,107,2,3,180,0,3,113,2,12,171,0,13,107,2,12,171,0,13,107,2,12,171,0,13,107,2,3,180,0,3,114,2,12,171,0,13,107,2,12,171,0,13,107,2,1,182,0,6,113,2,0,183,0,0,114,2,3,180,0,8,113,3,12,171,0,13,107,2,151,16,16,103,25,19
2019-02-19T23:59:55Z,112,183,12,16,183,112,4,10,0,6,183,112,0,0,0,0,9,174,5,107,0,183,0,112,0,8,0,4,8,0,4,0,1,182,0,1,111,7,2,181,0,2,111,1,11,172,0,12,105,1,2,181,0,2,111,1,11,172,0,12,105,1,11,172,0,12,105,1,11,172,0,12,105,1,1,182,0,1,112,1,11,172,0,12,105,1,11,172,0,12,105,1,2,181,0,7,110,1,0,183,0,0,112,1,1,181,1,6,110,3,11,170,2,12,104,2,153,14,16,102,22,19
2019-02-20T23:59:57Z,115,185,13,17,185,115,5,11,0,6,185,115,0,0,0,0,9,176,5,110,0,185,1,115,0,9,0,5,8,0,4,0,1,183,1,1,113,8,2,183,0,2,114,1,11,174,0,12,108,2,2,183,0,2,114,1,11,174,0,12,108,3,11,174,0,12,108,1,11,174,0,12,108,2,1,184,0,1,115,2,10,174,1,12,108,2,11,174,0,12,108,2,2,183,0,7,113,1,0,185,0,0,115,2,1,183,1,6,113,3,11,174,0,12,108,1,152,17,16,103,24,19
2019-02-21T23:59:56Z,116,189,12,17,189,116,2,9,0,6,189,116,0,0,0,0,9,180,5,111,0,189,0,116,0,8,0,4,8,0,4,0,2,187,0,2,114,7,4,185,0,4,114,1,13,176,0,14,108,1,6,183,0,5,113,1,13,174,2,14,107,2,13,174,2,14,107,2,13,176,0,14,108,1,3,186,0,3,116,1,13,176,0,14,108,1,13,174,2,14,107,2,2,187,0,7,114,1,0,189,0,0,116,1,3,185,1,8,114,3,14,174,1,15,107,2,156,17,16,104,24,19
2019-02-22T23:59:59Z,115,190,11,16,190,115,4,11,0,6,190,115,0,0,0,0,10,180,6,109,0,190,0,115,0,8,0,4,8,0,4,0,2,188,0,2,113,7,3,187,0,3,113,1,12,178,0,13,107,1,4,186,0,4,113,1,13,176,1,14,106,2,13,177,0,14,107,1,12,176,2,13,106,2,3,185,2,3,113,2,12,176,2,13,106,2,12,176,2,13,106,2,1,187,2,6,113,2,0,188,2,0,114,2,3,187,0,8,113,2,12,178,0,13,107,1,159,12,19,106,20,20
2019-02-23T23:59:59Z,116,189,12,17,189,116,4,11,0,7,189,116,0,0,0,0,10,179,6,110,0,189,0,116,0,8,0,4,8,0,4,0,1,188,0,1,115,8,3,186,0,3,115,1,12,177,0,14,109,1,3,186,0,3,115,1,12,177,0,14,109,1,12,177,0,14,109,1,12,177,0,14,109,1,3,186,0,3,115,1,12,177,0,14,109,1,12,177,0,14,109,1,1,188,0,7,115,1,0,189,0,0,116,1,3,186,0,9,114,2,13,176,0,15,108,1,159,11,19,107,20,20
2019-02-24T23:59:56Z,114,187,12,18,187,114,5,13,0,6,187,114,0,0,0,0,10,177,6,108,0,187,0,114,0,8,0,4,8,0,4,0,2,185,0,3,112,7,3,184,0,4,112,1,12,175,0,14,106,1,5,182,0,5,111,1,12,173,2,14,105,2,12,173,2,14,105,2,12,173,2,14,105,2,3,182,2,4,112,2,14,173,0,15,105,1,12,173,2,14,105,2,1,185,1,6,113,2,0,187,0,0,114,1,3,184,0,9,112,2,13,174,0,15,105,1,153,16,18,101,23,19
2019-02-25T23:59:56Z,117,191,12,19,191,117,4,13,0,7,191,117,0,0,0,0,10,181,6,111,0,191,1,117,0,8,0,4,8,0,4,0,4,187,0,5,113,8,5,186,0,6,113,1,14,177,0,17,107,1,5,186,0,6,113,1,14,177,0,17,107,1,14,177,0,17,107,1,14,177,0,17,107,1,3,188,0,4,116,2,14,177,0,17,107,1,14,177,0,17,107,1,2,189,0,8,115,1,0,191,0,0,117,1,3,187,1,10,114,3,14,177,0,17,107,1,159,13,19,107,22,20
2019-02-26T23:59:56Z,117,192,12,18,192,117,4,12,0,6,192,117,0,0,0,0,10,182,6,111,0,192,0,117,0,8,0,4,10,0,5,0,2,190,0,3,115,8,4,188,0,5,115,1,15,177,0,16,108,3,4,188,0,5,115,1,15,177,0,16,108,2,15,177,0,16,108,2,15,177,0,16,108,2,4,188,0,5,116,2,15,177,0,16,108,2,15,177,0,16,108,2,1,191,0,6,116,1,0,192,0,0,117,1,4,188,0,10,115,2,16,176,0,17,107,1,158,15,19,106,21,20
2019-02-27T23:59:56Z,119,194,12,18,194,119,3,11,0,6,194,119,0,0,0,0,12,182,7,112,0,194,0,119,0,12,0,6,12,0,6,0,2,192,0,3,117,7,6,188,0,6,116,1,17,177,0,17,109,1,6,188,0,6,116,1,17,177,0,17,109,1,17,177,0,17,109,1,17,177,0,17,109,1,4,190,0,5,118,1,17,177,0,17,109,1,17,177,0,17,109,1,1,193,0,6,118,1,0,194,0,0,119,1,4,190,0,10,117,2,18,176,0,18,108,1,159,16,19,107,23,20
2019-02-28T23:59:57Z,120,198,15,20,198,120,4,12,1,7,198,120,0,0,0,0,12,186,7,113,0,198,0,120,0,12,0,6,12,0,6,0,1,197,0,3,119,7,4,194,0,5,118,1,15,183,0,16,111,1,4,194,0,5,118,1,15,183,0,16,111,1,15,183,0,16,111,1,15,183,0,16,111,1,2,196,0,4,119,1,15,183,0,16,111,1,15,183,0,16,111,1,1,197,0,6,119,1,0,198,0,0,120,1,2,196,0,9,118,2,15,183,0,16,111,1,163,16,19,107,23,21
2019-03-01T23:59:59Z,121,199,15,20,199,121,5,13,0,7,199,121,0,0,0,0,12,187,7,114,0,199,0,121,0,12,0,6,12,0,6,0,3,196,0,4,118,8,7,192,0,7,118,1,18,181,0,18,110,1,7,192,0,7,118,1,18,181,0,18,110,1,18,181,0,18,110,1,18,181,0,18,110,1,5,194,0,6,120,1,17,181,1,18,110,2,18,181,0,18,110,1,1,198,0,7,120,1,0,199,0,0,121,1,5,194,0,11,118,2,19,180,0,19,109,1,163,17,19,108,24,21
2019-03-02T23:59:57Z,116,191,13,18,191,116,3,11,0,6,191,116,0,0,0,0,12,179,7,109,0,191,0,116,0,12,0,6,12,0,6,0,2,189,0,3,114,7,6,185,0,6,113,1,17,174,0,17,106,1,6,185,0,6,113,1,17,174,0,17,106,1,17,174,0,17,106,1,17,174,0,17,106,1,3,188,0,4,115,1,17,174,0,17,106,1,17,174,0,17,106,1,1,190,0,6,115,1,0,191,0,0,116,1,3,188,0,9,114,2,17,174,0,17,106,1,156,16,19,104,23,20
2019-03-03T23:59:58Z,121,195,15,23,194,121,5,16,1,8,195,121,0,0,0,0,12,183,8,114,0,195,0,121,0,12,0,6,12,0,6,0,4,191,0,6,117,8,7,188,0,8,117,2,19,176,0,22,109,1,7,188,0,8,117,2,19,176,0,22,109,1,19,176,0,22,109,1,19,176,0,22,109,1,4,191,0,6,120,1,19,176,0,22,109,1,19,176,0,22,109,1,1,194,0,8,120,1,0,195,0,0,121,1,5,190,0,13,118,3,19,176,0,22,109,1,163,13,19,111,21,21
2019-03-04T23:59:56Z,114,185,14,20,184,114,4,13,0,6,185,114,0,0,0,0,13,172,8,107,0,185,0,114,0,13,0,6,13,0,6,0,2,183,0,3,112,7,5,180,0,5,111,2,16,168,1,17,104,2,4,180,1,4,111,3,17,168,0,17,104,1,17,168,0,17,104,1,17,168,0,17,104,1,3,182,0,4,113,1,17,168,0,17,104,1,17,168,0,17,104,1,1,184,0,7,113,1,0,185,0,0,114,1,3,182,0,9,112,3,17,168,0,17,104,1,149,17,19,101,24,20
2019-03-05T23:59:55Z,114,183,13,19,182,114,4,13,0,7,183,114,0,0,0,0,12,171,8,107,0,183,0,114,0,12,0,6,12,0,6,0,2,180,1,3,111,9,6,177,0,6,111,2,18,165,0,20,103,1,6,177,0,6,111,2,18,165,0,20,103,1,18,165,0,20,103,1,18,165,0,20,103,1,3,180,0,4,113,1,18,165,0,20,103,1,18,165,0,20,103,1,1,182,0,8,113,1,0,183,0,0,114,1,4,179,0,11,111,3,18,165,0,20,103,1,150,14,19,102,23,20
2019-03-06T23:59:58Z,114,183,13,19,183,114,4,13,1,7,183,114,0,0,0,0,12,171,8,107,0,183,0,114,0,12,0,6,12,0,6,0,3,180,0,4,111,7,7,176,0,7,110,2,18,165,0,19,103,1,7,176,0,7,110,2,18,165,0,19,103,1,18,165,0,19,103,1,18,165,0,19,103,1,4,179,0,5,113,1,18,165,0,19,103,1,18,165,0,19,103,1,1,182,0,7,113,1,0,183,0,0,114,1,4,179,0,10,112,3,18,165,0,19,103,1,149,15,19,101,24,20
2019-03-07T23:59:59Z,115,185,13,19,185,115,3,12,1,7,185,115,0,0,0,0,12,173,8,108,0,185,0,115,0,12,0,6,12,0,6,0,3,182,0,4,112,7,7,178,0,7,111,2,18,167,0,19,104,1,7,178,0,7,111,2,18,167,0,19,104,1,18,167,0,19,104,1,18,167,0,19,104,1,4,181,0,5,114,1,18,167,0,19,104,1,18,167,0,19,104,1,1,184,0,7,114,1,0,185,0,0,115,1,4,181,0,10,113,3,18,167,0,19,104,1,149,17,19,101,27,20
2019-03-08T23:59:56Z,113,181,13,18,180,113,3,11,0,6,181,113,0,0,0,0,12,169,8,106,0,181,0,113,0,12,0,6,12,0,6,0,2,179,0,3,112,7,5,176,0,5,111,2,17,164,0,18,104,1,5,176,0,5,111,2,16,165,0,17,104,1,16,165,0,17,104,1,16,165,0,17,104,1,3,178,0,4,112,1,16,165,0,17,104,1,16,165,0,17,104,1,2,179,0,8,111,1,0,181,0,0,113,1,3,178,0,9,111,3,16,165,0,17,104,1,148,14,19,101,23,20
2019-03-09T23:59:56Z,113,182,12,19,182,113,3,13,0,7,182,113,0,0,0,0,12,170,8,106,0,182,0,113,0,12,0,6,12,0,6,0,3,179,0,4,110,7,6,176,0,6,109,2,17,165,0,18,102,1,6,176,0,6,109,2,17,165,0,18,102,1,17,165,0,18,102,1,17,165,0,18,102,1,3,179,0,4,112,1,17,165,0,18,102,1,17,165,0,18,102,1,1,181,0,7,112,1,0,182,0,0,113,1,3,179,0,9,111,3,17,165,0,18,102,1,147,16,19,100,25,20
2019-03-10T23:59:56Z,113,180,14,22,180,113,5,16,0,8,180,113,0,0,0,0,12,168,8,106,0,180,0,113,0,12,0,7,12,0,6,0,2,177,1,3,110,9,5,175,0,5,109,3,17,163,0,19,102,1,6,174,0,6,109,2,17,163,0,19,102,2,17,163,0,19,102,1,17,163,0,19,102,2,4,176,0,5,111,1,17,163,0,19,102,1,17,163,0,19,102,1,1,179,0,9,112,1,0,180,0,0,113,1,4,176,0,11,110,3,18,162,0,20,101,1,147,14,19,101,25,20
2019-03-11T23:59:57Z,113,181,14,20,181,113,5,14,0,7,181,113,0,0,0,0,13,168,9,105,0,181,0,113,0,12,0,6,12,0,6,0,1,179,1,2,111,9,6,175,0,6,110,3,18,163,0,19,102,2,6,175,0,6,110,3,17,164,0,18,103,3,17,164,0,18,103,2,17,164,0,18,103,3,3,177,1,4,112,3,17,164,0,18,103,2,17,164,0,18,103,2,2,179,0,9,111,2,2,179,0,1,112,2,3,177,1,8,110,4,17,164,0,18,103,1,149,13,19,102,23,20
2019-03-12T23:59:56Z,118,187,13,21,187,118,4,15,0,9,187,118,0,0,0,0,12,175,9,111,0,187,0,118,0,12,0,6,12,0,6,0,2,184,1,3,115,10,6,181,0,6,115,2,18,169,0,21,107,1,6,181,0,6,115,2,17,170,0,20,108,2,17,170,0,20,108,1,17,170,0,20,108,2,3,184,0,4,117,1,17,170,0,20,108,1,17,170,0,20,108,1,1,186,0,10,117,1,0,187,0,0,118,1,3,184,0,11,116,3,18,169,0,21,107,1,153,13,21,107,25,22
2019-03-13T23:59:56Z,118,185,14,23,185,118,3,15,0,9,185,118,0,0,0,0,13,172,9,110,1,184,2,118,0,13,0,7,13,0,7,0,2,182,1,5,115,9,7,178,0,7,114,2,19,166,0,21,106,2,7,178,0,7,114,3,18,167,0,21,107,3,18,167,0,21,107,1,18,167,0,17,107,3,5,180,0,6,116,2,18,167,0,21,107,1,18,167,0,18,107,1,1,184,0,9,117,1,0,185,0,0,118,2,5,180,0,13,115,3,19,166,0,22,106,1,150,14,21,106,26,22
2019-03-14T23:59:58Z,121,197,16,24,197,121,5,16,0,8,197,121,0,0,0,0,11,186,9,114,1,196,1,121,0,12,0,7,11,0,6,0,2,194,1,5,118,9,7,190,0,7,117,2,16,181,0,18,111,3,7,190,0,7,117,2,17,180,0,20,110,3,17,180,0,19,110,1,17,180,0,18,110,2,5,192,0,6,119,2,16,181,0,19,111,2,17,180,0,17,110,3,1,196,0,8,120,1,0,197,0,0,121,1,6,191,0,13,117,4,17,180,0,19,110,1,161,17,19,107,28,20
2019-03-15T23:59:56Z,121,191,16,23,191,121,6,16,1,9,191,121,0,0,0,0,11,180,8,114,1,190,1,121,0,11,0,6,11,0,6,0,2,188,1,3,118,9,8,183,0,8,116,2,18,173,0,19,109,1,8,183,0,8,116,2,18,173,0,20,109,2,18,173,0,20,110,1,18,173,0,20,110,2,5,186,0,6,119,1,18,173,0,20,110,1,18,173,0,17,109,2,2,189,0,9,119,1,0,191,0,0,121,1,6,184,1,9,116,4,18,173,0,19,109,1,157,15,19,108,30,21
2019-03-16T23:59:57Z,120,191,17,23,191,120,7,16,0,8,191,120,0,0,0,0,11,180,9,113,1,190,1,120,0,11,0,6,11,0,6,0,2,188,1,4,118,9,7,184,0,7,117,2,18,173,0,18,109,1,6,185,0,6,117,2,17,174,0,19,109,2,17,174,0,18,110,1,17,174,0,18,110,2,4,187,0,5,118,1,16,175,0,18,111,1,17,174,0,17,109,2,1,190,0,8,119,1,0,191,0,0,120,1,6,185,0,11,116,3,17,174,0,17,109,1,160,12,19,109,26,21
2019-03-17T23:59:58Z,121,192,17,23,192,121,6,15,0,7,192,121,0,0,0,0,11,181,8,114,1,191,1,121,0,11,0,6,11,0,6,0,1,191,0,2,120,8,6,185,1,6,117,3,16,176,0,17,111,1,7,185,0,7,117,2,16,176,0,18,111,2,16,176,0,15,111,1,16,176,0,19,111,2,4,188,0,5,119,1,16,176,0,18,111,1,16,176,0,15,111,2,2,190,0,9,119,1,0,192,0,0,121,1,4,187,1,8,117,4,16,176,0,18,111,1,159,14,19,109,26,20
2019-03-18T23:59:59Z,121,193,20,24,192,121,9,17,0,7,193,121,0,0,0,0,13,180,9,113,1,191,1,121,0,15,0,8,15,0,8,0,4,187,2,5,117,8,9,183,1,8,115,3,20,172,1,18,108,2,9,183,1,8,115,3,21,171,1,21,107,3,21,171,1,21,107,2,21,171,1,21,107,3,5,187,1,5,118,2,21,171,1,21,107,2,21,171,1,22,107,3,2,190,1,8,119,2,0,192,1,0,121,2,6,184,3,10,115,6,21,171,1,22,107,2,159,17,17,107,28,19
2019-03-19T23:59:58Z,119,189,16,22,188,119,5,15,0,7,189,119,0,0,0,0,13,176,9,111,1,187,1,119,0,13,0,7,13,0,7,0,2,186,1,4,117,8,7,181,1,7,115,3,18,170,1,18,108,2,7,181,1,7,115,3,18,170,1,17,108,3,18,170,1,18,108,2,18,170,1,19,108,3,5,183,1,6,117,2,18,170,1,17,108,2,18,170,1,16,108,3,1,187,1,7,118,2,0,188,1,0,119,3,5,183,1,12,116,4,18,170,1,18,108,2,158,14,17,107,27,19
2019-03-20T23:59:55Z,118,192,18,22,191,118,7,15,0,7,192,118,0,0,0,0,14,178,9,110,1,190,1,118,0,14,0,7,14,0,7,0,1,188,3,4,116,9,6,185,1,6,114,3,18,173,1,18,107,2,6,185,1,6,114,3,20,171,1,19,106,3,20,171,1,18,106,2,20,171,1,20,106,3,4,186,2,5,115,3,20,169,3,18,105,3,20,171,1,18,106,3,4,187,1,7,115,2,0,189,3,0,117,3,3,187,2,9,114,5,18,173,1,20,107,2,160,14,18,107,25,20
2019-03-21T23:59:58Z,118,188,15,23,188,118,6,16,0,8,188,118,0,0,0,0,13,175,9,110,1,187,1,118,0,13,0,7,13,0,7,0,2,185,1,3,115,5,6,182,0,6,114,2,17,171,0,15,107,1,6,182,0,6,114,2,18,170,0,16,106,2,18,170,0,16,107,1,18,170,0,17,107,2,4,184,0,5,116,1,18,170,0,18,107,1,18,170,0,19,106,2,1,187,0,7,117,1,0,188,0,0,118,1,5,183,0,12,115,3,18,170,0,17,106,1,160,12,16,108,24,19
2019-03-22T23:59:59Z,122,192,18,27,192,122,8,19,2,9,192,122,0,0,0,0,14,178,10,114,1,191,2,122,0,14,1,7,14,0,8,0,5,187,0,7,117,7,10,182,0,11,115,3,23,169,0,21,107,2,9,183,0,10,116,3,21,171,0,21,109,3,22,170,0,21,108,2,22,170,0,21,108,3,5,187,0,6,120,2,21,171,0,20,109,2,21,171,0,21,109,3,2,190,0,6,120,2,0,192,0,0,122,2,5,186,1,11,118,5,22,170,0,23,108,2,160,15,17,111,26,19
2019-03-23T23:59:59Z,123,193,17,25,193,123,6,15,0,7,193,123,0,0,0,0,13,180,9,115,1,192,1,123,0,13,0,7,13,0,7,0,3,190,0,5,120,4,9,184,0,9,117,2,20,173,0,18,110,1,9,184,0,9,117,2,20,173,0,18,110,2,20,173,0,17,110,1,20,173,0,19,110,2,5,188,0,5,121,1,21,172,0,22,109,1,20,173,0,18,110,2,2,191,0,7,121,1,0,193,0,0,123,1,6,186,1,10,118,4,21,172,0,20,109,1,165,14,14,112,27,18
2019-03-24T23:59:57Z,121,188,15,23,188,121,6,15,0,9,188,121,0,0,0,0,13,175,10,113,1,187,1,121,0,13,1,7,13,0,8,0,2,186,0,4,119,8,7,181,0,8,118,2,18,170,0,21,110,1,6,182,0,7,118,2,17,171,0,17,111,2,17,171,0,20,111,1,18,170,0,20,110,2,4,184,0,4,119,1,17,171,0,20,111,1,18,170,0,17,110,2,2,186,0,9,119,2,0,188,0,0,121,1,5,183,0,9,118,3,17,171,0,20,111,1,158,14,16,108,29,21
2019-03-25T23:59:58Z,124,192,17,25,192,124,7,17,0,8,192,124,0,0,0,0,13,179,10,116,1,191,1,124,0,13,1,7,13,0,8,0,3,188,1,6,120,8,10,182,0,11,117,2,21,171,0,20,110,1,9,183,0,10,118,2,21,171,0,20,110,2,20,172,0,18,111,1,21,171,0,21,110,2,5,187,0,5,122,1,21,171,0,22,110,1,20,172,0,20,111,2,2,190,0,6,122,2,0,192,0,0,124,1,5,186,1,8,120,4,21,170,1,22,110,2,160,15,17,111,29,21
2019-03-26T23:59:56Z,124,192,17,25,192,124,7,17,0,8,192,124,0,0,0,0,13,179,10,116,1,191,1,124,0,13,1,7,13,0,8,0,3,188,1,6,120,8,10,182,0,11,117,2,21,171,0,20,110,1,9,183,0,10,118,2,21,171,0,20,110,2,20,172,0,18,111,1,21,171,0,21,110,2,5,187,0,5,122,1,21,171,0,22,110,1,20,172,0,20,111,2,2,190,0,6,122,2,0,192,0,0,124,1,5,186,1,8,120,4,21,170,1,22,110,2,160,15,17,111,29,21
2019-03-27T23:59:59Z,124,192,17,25,192,124,7,17,0,8,192,124,0,0,0,0,13,179,10,116,1,191,1,124,0,13,1,7,13,0,8,0,3,188,1,6,120,8,10,182,0,11,117,2,21,171,0,20,110,1,9,183,0,10,118,2,21,171,0,20,110,2,20,172,0,18,111,1,21,171,0,21,110,2,5,187,0,5,122,1,21,171,0,22,110,1,20,172,0,20,111,2,2,190,0,6,122,2,0,192,0,0,124,1,5,186,1,8,120,4,21,170,1,22,110,2,160,15,17,111,29,21